Time,TemperatureF,DewpointF,PressureIn,WindDirection,WindDirectionDegrees,WindSpeedMPH,WindSpeedGustMPH,Humidity,HourlyPrecipIn,Conditions,Clouds,dailyrainin,SoftwareType,DateUTC
2013-10-19 00:01:00,58.0,57.4,29.92,ESE,121,0.0,0.0,98,0.00,RA,,0.00,WeatherDisplay:10.37,2013-10-19 04:01:00,
2013-10-19 00:02:00,58.0,57.4,29.92,ESE,121,0.0,0.0,98,0.00,RA,,0.00,WeatherDisplay:10.37,2013-10-19 04:02:00,
2013-10-19 00:07:00,58.0,57.4,29.92,ESE,121,0.0,0.0,98,0.00,RA,,0.00,WeatherDisplay:10.37,2013-10-19 04:07:00,
2013-10-19 00:12:00,58.1,57.5,29.92,ESE,121,0.0,0.0,98,0.00,BKN,,0.00,WeatherDisplay:10.37,2013-10-19 04:12:00,
2013-10-19 00:17:00,58.1,57.5,29.92,ESE,121,0.0,0.0,98,0.00,BKN,,0.00,WeatherDisplay:10.37,2013-10-19 04:17:00,
2013-10-19 00:22:00,58.3,57.7,29.92,ESE,121,0.0,0.0,98,0.00,BKN,,0.00,WeatherDisplay:10.37,2013-10-19 04:22:00,
2013-10-19 00:27:00,58.3,57.7,29.92,ESE,121,0.0,0.0,98,0.00,BKN,,0.00,WeatherDisplay:10.37,2013-10-19 04:27:00,
2013-10-19 00:32:00,58.3,57.7,29.92,ESE,121,0.0,0.0,98,0.00,OVC,,0.00,WeatherDisplay:10.37,2013-10-19 04:32:00,
2013-10-19 00:37:00,58.3,57.7,29.91,ESE,121,0.0,0.0,98,0.00,OVC,,0.00,WeatherDisplay:10.37,2013-10-19 04:37:00,
2013-10-19 00:42:00,58.4,57.8,29.92,ESE,121,0.0,0.0,98,0.00,OVC,,0.00,WeatherDisplay:10.37,2013-10-19 04:42:00,
2013-10-19 00:47:00,58.4,57.8,29.92,ESE,121,0.0,0.0,98,0.00,OVC,,0.00,WeatherDisplay:10.37,2013-10-19 04:47:00,
2013-10-19 00:52:00,58.6,58.0,29.92,ESE,121,0.0,0.0,98,0.00,OVC,,0.00,WeatherDisplay:10.37,2013-10-19 04:52:00,
2013-10-19 00:57:00,58.6,58.0,29.91,ESE,121,0.0,0.0,98,0.00,OVC,,0.00,WeatherDisplay:10.37,2013-10-19 04:57:00,
2013-10-19 01:02:00,58.6,57.8,29.91,ESE,121,0.0,0.0,97,0.00,OVC,,0.00,WeatherDisplay:10.37,2013-10-19 05:02:00,
2013-10-19 01:08:00,58.6,57.8,29.91,ESE,121,0.0,0.0,97,0.00,OVC,,0.00,WeatherDisplay:10.37,2013-10-19 05:08:00,
2013-10-19 01:13:00,58.6,57.8,29.92,ESE,121,0.0,0.0,97,0.00,OVC,,0.00,WeatherDisplay:10.37,2013-10-19 05:13:00,
2013-10-19 01:18:00,58.6,57.8,29.92,ESE,121,0.0,0.0,97,0.00,OVC,,0.00,WeatherDisplay:10.37,2013-10-19 05:18:00,
2013-10-19 01:23:00,58.6,57.8,29.91,ESE,121,0.0,0.0,97,0.00,OVC,,0.00,WeatherDisplay:10.37,2013-10-19 05:23:00,
2013-10-19 01:28:00,58.7,57.9,29.91,ESE,121,0.0,0.1,97,0.00,OVC,,0.00,WeatherDisplay:10.37,2013-10-19 05:28:00,
2013-10-19 01:33:00,58.7,57.9,29.91,ESE,118,2.3,0.0,97,0.00,OVC,,0.00,WeatherDisplay:10.37,2013-10-19 05:33:00,
2013-10-19 01:38:00,58.7,57.9,29.91,ESE,117,0.0,0.0,97,0.00,OVC,,0.00,WeatherDisplay:10.37,2013-10-19 05:38:00,
2013-10-19 01:43:00,58.7,57.9,29.91,ESE,118,0.0,0.0,97,0.00,OVC,,0.00,WeatherDisplay:10.37,2013-10-19 05:43:00,
2013-10-19 01:48:00,58.7,57.9,29.91,ESE,113,1.2,1.2,97,0.00,OVC,,0.00,WeatherDisplay:10.37,2013-10-19 05:48:00,
2013-10-19 01:53:00,58.6,57.8,29.91,NE,56,3.5,3.5,97,0.00,OVC,,0.00,WeatherDisplay:10.37,2013-10-19 05:53:00,
2013-10-19 01:58:00,58.6,57.5,29.91,NE,38,3.5,3.5,96,0.00,OVC,,0.00,WeatherDisplay:10.37,2013-10-19 05:58:00,
2013-10-19 02:03:00,58.4,57.3,29.91,NNE,22,3.5,3.5,96,0.00,OVC,,0.00,WeatherDisplay:10.37,2013-10-19 06:03:00,
2013-10-19 02:08:00,58.4,57.3,29.90,NNE,22,2.3,0.0,96,0.00,OVC,,0.00,WeatherDisplay:10.37,2013-10-19 06:08:00,
2013-10-19 02:13:00,58.4,57.3,29.90,NNE,22,0.0,0.1,96,0.00,OVC,,0.00,WeatherDisplay:10.37,2013-10-19 06:13:00,
2013-10-19 02:18:00,58.4,57.3,29.90,NNE,22,1.2,0.0,96,0.00,OVC,,0.00,WeatherDisplay:10.37,2013-10-19 06:18:00,
2013-10-19 02:23:00,58.4,57.3,29.90,NNE,22,0.0,0.0,96,0.00,OVC,,0.00,WeatherDisplay:10.37,2013-10-19 06:23:00,
2013-10-19 02:28:00,58.4,57.3,29.91,NNE,22,0.0,0.0,96,0.00,OVC,,0.00,WeatherDisplay:10.37,2013-10-19 06:28:00,
2013-10-19 02:33:00,58.4,57.3,29.90,NNE,22,0.0,0.0,96,0.00,OVC,,0.00,WeatherDisplay:10.37,2013-10-19 06:33:00,
2013-10-19 02:38:00,58.4,57.3,29.90,NNE,22,0.0,0.0,96,0.00,OVC,,0.00,WeatherDisplay:10.37,2013-10-19 06:38:00,
2013-10-19 02:43:00,58.3,57.2,29.90,NNE,21,3.5,3.5,96,0.00,OVC,,0.00,WeatherDisplay:10.37,2013-10-19 06:43:00,
2013-10-19 02:48:00,58.3,57.2,29.90,NNE,22,2.3,2.3,96,0.00,OVC,,0.00,WeatherDisplay:10.37,2013-10-19 06:48:00,
2013-10-19 02:53:00,58.3,57.2,29.89,NNE,22,0.0,0.0,96,0.00,OVC,,0.00,WeatherDisplay:10.37,2013-10-19 06:53:00,
2013-10-19 02:58:00,58.3,57.2,29.89,NNE,21,0.0,0.0,96,0.00,OVC,,0.00,WeatherDisplay:10.37,2013-10-19 06:58:00,
2013-10-19 03:03:00,58.3,57.2,29.89,NNE,22,0.0,0.0,96,0.00,OVC,,0.00,WeatherDisplay:10.37,2013-10-19 07:03:00,
2013-10-19 03:08:00,58.3,57.2,29.89,NNE,22,1.2,1.2,96,0.00,OVC,,0.00,WeatherDisplay:10.37,2013-10-19 07:08:00,
2013-10-19 03:13:00,58.3,57.2,29.89,NNE,22,1.2,1.2,96,0.00,OVC,,0.00,WeatherDisplay:10.37,2013-10-19 07:13:00,
2013-10-19 03:18:00,58.3,57.2,29.89,NNE,22,1.0,0.0,96,0.00,OVC,,0.00,WeatherDisplay:10.37,2013-10-19 07:18:00,
2013-10-19 03:23:00,58.3,57.2,29.89,NNE,22,0.0,0.0,96,0.00,OVC,,0.00,WeatherDisplay:10.37,2013-10-19 07:23:00,
2013-10-19 03:28:00,58.3,57.2,29.89,NNE,22,0.0,0.0,96,0.00,OVC,,0.00,WeatherDisplay:10.37,2013-10-19 07:28:00,
2013-10-19 03:33:00,58.1,57.0,29.88,NNE,22,0.0,0.0,96,0.00,OVC,,0.00,WeatherDisplay:10.37,2013-10-19 07:33:00,
2013-10-19 03:38:00,58.3,57.2,29.89,NNE,22,0.0,0.0,96,0.00,OVC,,0.00,WeatherDisplay:10.37,2013-10-19 07:38:00,
2013-10-19 03:43:00,58.1,57.0,29.89,NNE,22,0.0,0.0,96,0.00,OVC,,0.00,WeatherDisplay:10.37,2013-10-19 07:43:00,
2013-10-19 03:48:00,58.3,57.2,29.89,NNE,22,0.0,0.0,96,0.00,OVC,,0.00,WeatherDisplay:10.37,2013-10-19 07:48:00,
2013-10-19 03:53:00,58.3,57.2,29.89,NNE,22,0.0,0.0,96,0.00,OVC,,0.00,WeatherDisplay:10.37,2013-10-19 07:53:00,
2013-10-19 03:58:00,58.3,57.2,29.89,NNE,22,0.0,0.0,96,0.00,OVC,,0.00,WeatherDisplay:10.37,2013-10-19 07:58:00,
2013-10-19 04:03:00,58.3,57.2,29.89,NNE,22,0.0,0.0,96,0.00,OVC,,0.00,WeatherDisplay:10.37,2013-10-19 08:03:00,
2013-10-19 04:08:00,58.4,57.3,29.89,NNE,21,2.3,2.3,96,0.00,OVC,,0.00,WeatherDisplay:10.37,2013-10-19 08:08:00,
2013-10-19 04:13:00,58.4,57.3,29.89,NNE,22,1.2,0.0,96,0.00,OVC,,0.00,WeatherDisplay:10.37,2013-10-19 08:13:00,
2013-10-19 04:18:00,58.4,57.3,29.88,NNE,22,0.0,0.0,96,0.00,OVC,,0.00,WeatherDisplay:10.37,2013-10-19 08:18:00,
2013-10-19 04:23:00,58.4,57.6,29.88,NNE,22,0.0,0.0,97,0.00,OVC,,0.00,WeatherDisplay:10.37,2013-10-19 08:23:00,
2013-10-19 04:28:00,58.4,57.6,29.88,NNE,22,0.0,0.0,97,0.00,OVC,,0.00,WeatherDisplay:10.37,2013-10-19 08:28:00,
2013-10-19 04:33:00,58.4,57.6,29.88,NNE,22,0.0,0.0,97,0.00,OVC,,0.00,WeatherDisplay:10.37,2013-10-19 08:33:00,
2013-10-19 04:38:00,58.4,57.6,29.88,NNE,22,0.0,0.0,97,0.00,OVC,,0.00,WeatherDisplay:10.37,2013-10-19 08:38:00,
2013-10-19 04:43:00,58.4,57.6,29.87,NNE,22,0.0,0.0,97,0.00,OVC,,0.00,WeatherDisplay:10.37,2013-10-19 08:43:00,
2013-10-19 04:48:00,58.3,57.5,29.87,NNE,22,0.0,0.0,97,0.00,OVC,,0.00,WeatherDisplay:10.37,2013-10-19 08:48:00,
2013-10-19 04:53:00,58.3,57.5,29.86,NNE,22,0.0,0.0,97,0.00,OVC,,0.00,WeatherDisplay:10.37,2013-10-19 08:53:00,
2013-10-19 04:58:00,58.3,57.5,29.86,NNE,22,0.0,0.0,97,0.00,OVC,,0.00,WeatherDisplay:10.37,2013-10-19 08:58:00,
2013-10-19 05:03:00,58.1,57.5,29.86,NNE,22,0.0,0.0,98,0.00,OVC,,0.00,WeatherDisplay:10.37,2013-10-19 09:03:00,
2013-10-19 05:08:00,58.1,57.5,29.87,NNE,22,0.0,0.0,98,0.00,OVC,,0.00,WeatherDisplay:10.37,2013-10-19 09:08:00,
2013-10-19 05:13:00,58.1,57.5,29.87,NNE,22,0.0,0.0,98,0.00,OVC,,0.00,WeatherDisplay:10.37,2013-10-19 09:13:00,
2013-10-19 05:18:00,58.1,57.5,29.87,ENE,71,0.0,0.0,98,0.00,OVC,,0.00,WeatherDisplay:10.37,2013-10-19 09:18:00,
2013-10-19 05:23:00,58.1,57.5,29.87,ENE,71,0.0,0.0,98,0.00,OVC,,0.00,WeatherDisplay:10.37,2013-10-19 09:23:00,
2013-10-19 05:28:00,58.1,57.5,29.87,ENE,71,0.0,0.0,98,0.00,OVC,,0.00,WeatherDisplay:10.37,2013-10-19 09:28:00,
2013-10-19 05:33:00,58.1,57.5,29.87,ENE,71,0.0,0.0,98,0.00,-RA,,0.00,WeatherDisplay:10.37,2013-10-19 09:33:00,
2013-10-19 05:38:00,58.1,57.5,29.87,ENE,71,0.0,0.0,98,0.00,-RA,,0.00,WeatherDisplay:10.37,2013-10-19 09:38:00,
2013-10-19 05:43:00,58.1,57.5,29.87,ENE,71,0.0,0.0,98,0.00,-RA,,0.00,WeatherDisplay:10.37,2013-10-19 09:43:00,
2013-10-19 05:48:00,58.1,57.5,29.87,ENE,71,0.0,0.0,98,0.00,-RA,,0.00,WeatherDisplay:10.37,2013-10-19 09:48:00,
2013-10-19 05:53:00,58.1,57.5,29.87,ENE,71,0.0,0.0,98,0.00,-RA,,0.00,WeatherDisplay:10.37,2013-10-19 09:53:00,
2013-10-19 05:58:00,58.3,58.0,29.87,ENE,71,0.0,0.0,99,0.01,-RA,,0.01,WeatherDisplay:10.37,2013-10-19 09:58:00,
2013-10-19 06:03:00,58.3,58.0,29.87,ENE,71,0.0,0.0,99,0.01,-RA,,0.01,WeatherDisplay:10.37,2013-10-19 10:03:00,
2013-10-19 06:08:00,58.3,58.0,29.87,ENE,71,0.0,0.0,99,0.01,-RA,,0.01,WeatherDisplay:10.37,2013-10-19 10:08:00,
2013-10-19 06:13:00,58.1,57.8,29.87,ENE,71,0.0,0.0,99,0.01,-RA,,0.01,WeatherDisplay:10.37,2013-10-19 10:13:00,
2013-10-19 06:18:00,58.3,58.0,29.87,ENE,71,0.0,0.0,99,0.01,-RA,,0.01,WeatherDisplay:10.37,2013-10-19 10:18:00,
2013-10-19 06:23:00,58.3,58.0,29.87,ENE,71,0.0,0.0,99,0.01,-RA,,0.01,WeatherDisplay:10.37,2013-10-19 10:23:00,
2013-10-19 06:28:00,58.3,58.0,29.87,ENE,71,0.0,0.0,99,0.01,-RA,,0.01,WeatherDisplay:10.37,2013-10-19 10:28:00,
2013-10-19 06:33:00,58.3,58.0,29.86,ENE,71,1.0,1.0,99,0.01,-RA,,0.01,WeatherDisplay:10.37,2013-10-19 10:33:00,
2013-10-19 06:38:00,58.3,58.0,29.85,ENE,71,0.0,0.0,99,0.01,-RA,,0.01,WeatherDisplay:10.37,2013-10-19 10:38:00,
2013-10-19 06:43:00,58.3,58.0,29.85,ENE,71,0.0,0.0,99,0.01,-RA,,0.01,WeatherDisplay:10.37,2013-10-19 10:43:00,
2013-10-19 06:48:00,58.3,58.0,29.86,ENE,71,0.0,0.0,99,0.01,-RA,,0.01,WeatherDisplay:10.37,2013-10-19 10:48:00,
2013-10-19 06:54:00,58.3,58.0,29.86,ENE,71,0.0,0.0,99,0.01,-RA,,0.01,WeatherDisplay:10.37,2013-10-19 10:54:00,
2013-10-19 06:59:00,58.3,58.0,29.87,ENE,71,0.0,0.0,99,0.00,-RA,,0.01,WeatherDisplay:10.37,2013-10-19 10:59:00,
2013-10-19 07:04:00,58.1,57.8,29.87,ENE,71,0.0,0.0,99,0.00,,,0.01,WeatherDisplay:10.37,2013-10-19 11:04:00,
2013-10-19 07:09:00,58.3,58.0,29.87,ENE,71,0.0,0.0,99,0.00,,,0.01,WeatherDisplay:10.37,2013-10-19 11:09:00,
2013-10-19 07:14:00,58.3,58.0,29.87,ENE,71,0.0,0.0,99,0.00,,,0.01,WeatherDisplay:10.37,2013-10-19 11:14:00,
2013-10-19 07:19:00,58.3,58.0,29.89,ENE,71,0.0,0.0,99,0.00,,,0.01,WeatherDisplay:10.37,2013-10-19 11:19:00,
2013-10-19 07:24:00,58.3,58.3,29.89,ENE,71,0.0,0.0,100,0.00,,,0.01,WeatherDisplay:10.37,2013-10-19 11:24:00,
2013-10-19 07:29:00,58.3,58.3,29.88,ENE,71,0.0,0.0,100,0.00,,,0.01,WeatherDisplay:10.37,2013-10-19 11:29:00,
2013-10-19 07:34:00,58.4,58.4,29.88,ENE,71,0.0,0.0,100,0.00,,,0.01,WeatherDisplay:10.37,2013-10-19 11:34:00,
2013-10-19 07:39:00,58.4,58.4,29.89,ENE,71,0.0,0.0,100,0.00,,,0.01,WeatherDisplay:10.37,2013-10-19 11:39:00,
2013-10-19 07:44:00,58.4,58.4,29.89,ENE,71,0.0,0.0,100,0.00,,,0.01,WeatherDisplay:10.37,2013-10-19 11:44:00,
2013-10-19 07:49:00,58.4,58.4,29.89,ENE,71,0.0,0.0,100,0.00,,,0.01,WeatherDisplay:10.37,2013-10-19 11:49:00,
2013-10-19 07:54:00,58.4,58.4,29.88,ENE,71,0.0,0.0,100,0.00,,,0.01,WeatherDisplay:10.37,2013-10-19 11:54:00,
2013-10-19 07:59:00,58.4,58.4,29.87,ENE,71,0.0,0.0,100,0.00,,,0.01,WeatherDisplay:10.37,2013-10-19 11:59:00,
2013-10-19 08:04:00,58.6,58.6,29.87,ENE,71,0.0,0.0,100,0.00,,,0.01,WeatherDisplay:10.37,2013-10-19 12:04:00,
2013-10-19 08:09:00,58.6,58.6,29.87,ENE,71,0.0,0.0,100,0.00,,,0.01,WeatherDisplay:10.37,2013-10-19 12:09:00,
2013-10-19 08:14:00,58.7,58.7,29.88,ENE,71,0.0,0.0,100,0.00,,,0.01,WeatherDisplay:10.37,2013-10-19 12:14:00,
2013-10-19 08:19:00,58.7,58.7,29.88,ENE,71,0.0,0.0,100,0.00,,,0.01,WeatherDisplay:10.37,2013-10-19 12:19:00,
2013-10-19 08:24:00,58.6,58.6,29.88,ENE,71,0.0,0.0,100,0.00,,,0.01,WeatherDisplay:10.37,2013-10-19 12:24:00,
2013-10-19 08:29:00,58.6,58.6,29.88,ENE,71,0.0,0.0,100,0.00,,,0.01,WeatherDisplay:10.37,2013-10-19 12:29:00,
2013-10-19 08:34:00,58.6,58.6,29.88,ENE,71,0.0,0.0,100,0.00,OVC,,0.01,WeatherDisplay:10.37,2013-10-19 12:34:00,
2013-10-19 08:39:00,58.6,58.6,29.89,ENE,71,0.0,0.0,100,0.00,OVC,,0.01,WeatherDisplay:10.37,2013-10-19 12:39:00,
2013-10-19 08:44:00,58.7,58.7,29.89,ENE,71,0.0,0.0,100,0.00,OVC,,0.01,WeatherDisplay:10.37,2013-10-19 12:44:00,
2013-10-19 08:49:00,58.7,58.7,29.88,ENE,71,0.0,0.0,100,0.00,OVC,,0.01,WeatherDisplay:10.37,2013-10-19 12:49:00,
2013-10-19 08:54:00,58.9,58.9,29.89,ENE,71,0.0,0.0,100,0.00,OVC,,0.01,WeatherDisplay:10.37,2013-10-19 12:54:00,
2013-10-19 08:59:00,58.9,58.9,29.89,ENE,71,0.0,0.0,100,0.00,OVC,,0.01,WeatherDisplay:10.37,2013-10-19 12:59:00,
2013-10-19 09:04:00,58.9,58.9,29.89,ENE,71,0.0,0.0,100,0.00,OVC,,0.01,WeatherDisplay:10.37,2013-10-19 13:04:00,
2013-10-19 09:09:00,59.0,59.0,29.89,ENE,71,0.0,0.0,100,0.00,OVC,,0.01,WeatherDisplay:10.37,2013-10-19 13:09:00,
2013-10-19 09:14:00,59.0,59.0,29.89,ENE,71,0.0,0.0,100,0.00,OVC,,0.01,WeatherDisplay:10.37,2013-10-19 13:14:00,
2013-10-19 09:19:00,59.2,59.2,29.89,ENE,71,0.0,0.0,100,0.00,OVC,,0.01,WeatherDisplay:10.37,2013-10-19 13:19:00,
2013-10-19 09:24:00,59.2,59.2,29.89,ENE,71,0.0,0.0,100,0.00,OVC,,0.01,WeatherDisplay:10.37,2013-10-19 13:24:00,
2013-10-19 09:29:00,59.2,59.2,29.89,ENE,71,0.0,0.0,100,0.00,OVC,,0.01,WeatherDisplay:10.37,2013-10-19 13:29:00,
2013-10-19 09:34:00,59.2,59.2,29.89,ENE,71,0.0,0.0,100,0.00,OVC,,0.01,WeatherDisplay:10.37,2013-10-19 13:34:00,
2013-10-19 09:39:00,59.2,59.2,29.89,ENE,71,0.0,0.0,100,0.00,OVC,,0.01,WeatherDisplay:10.37,2013-10-19 13:39:00,
2013-10-19 09:44:00,59.3,59.3,29.89,ENE,71,0.0,0.0,100,0.00,OVC,,0.01,WeatherDisplay:10.37,2013-10-19 13:44:00,
2013-10-19 09:49:00,59.3,59.3,29.87,ENE,71,0.0,0.0,100,0.00,OVC,,0.01,WeatherDisplay:10.37,2013-10-19 13:49:00,
2013-10-19 09:54:00,59.5,59.5,29.87,ENE,71,0.0,0.0,100,0.00,OVC,,0.01,WeatherDisplay:10.37,2013-10-19 13:54:00,
2013-10-19 09:59:00,59.6,59.6,29.88,ENE,71,0.0,0.0,100,0.00,OVC,,0.01,WeatherDisplay:10.37,2013-10-19 13:59:00,
2013-10-19 10:04:00,59.6,59.6,29.88,ENE,71,0.0,0.0,100,0.00,BKN,,0.01,WeatherDisplay:10.37,2013-10-19 14:04:00,
2013-10-19 10:09:00,59.8,59.8,29.89,ENE,71,0.0,0.0,100,0.00,BKN,,0.01,WeatherDisplay:10.37,2013-10-19 14:09:00,
2013-10-19 10:14:00,59.8,59.8,29.88,ENE,71,0.0,0.0,100,0.00,BKN,,0.01,WeatherDisplay:10.37,2013-10-19 14:14:00,
2013-10-19 10:19:00,59.9,59.9,29.88,ENE,71,0.0,0.0,100,0.00,BKN,,0.01,WeatherDisplay:10.37,2013-10-19 14:19:00,
2013-10-19 10:24:00,59.9,59.9,29.89,ENE,71,0.0,0.0,100,0.00,BKN,,0.01,WeatherDisplay:10.37,2013-10-19 14:24:00,
2013-10-19 10:29:00,60.1,60.1,29.89,ENE,71,0.0,0.0,100,0.00,BKN,,0.01,WeatherDisplay:10.37,2013-10-19 14:29:00,
2013-10-19 10:34:00,60.1,60.1,29.89,ENE,71,0.0,0.0,100,0.00,BKN,,0.01,WeatherDisplay:10.37,2013-10-19 14:34:00,
2013-10-19 10:39:00,60.1,60.1,29.89,ENE,71,0.0,0.0,100,0.00,BKN,,0.01,WeatherDisplay:10.37,2013-10-19 14:39:00,
2013-10-19 10:44:00,60.2,60.2,29.89,ENE,71,1.2,1.2,100,0.00,BKN,,0.01,WeatherDisplay:10.37,2013-10-19 14:44:00,
2013-10-19 10:49:00,60.4,60.4,29.89,ENE,71,0.0,0.0,100,0.00,BKN,,0.01,WeatherDisplay:10.37,2013-10-19 14:49:00,
2013-10-19 10:54:00,60.4,60.4,29.89,ENE,71,1.0,0.0,100,0.00,BKN,,0.01,WeatherDisplay:10.37,2013-10-19 14:54:00,
2013-10-19 10:59:00,60.4,60.4,29.89,NNE,25,0.0,0.0,100,0.00,BKN,,0.01,WeatherDisplay:10.37,2013-10-19 14:59:00,
2013-10-19 11:04:00,60.4,60.4,29.89,NNE,25,0.0,0.0,100,0.00,OVC,,0.01,WeatherDisplay:10.37,2013-10-19 15:04:00,
2013-10-19 11:09:00,60.4,60.4,29.89,NNW,331,2.3,2.3,100,0.00,OVC,,0.01,WeatherDisplay:10.37,2013-10-19 15:09:00,
2013-10-19 11:14:00,60.5,60.5,29.88,NNW,331,0.0,0.0,100,0.01,RA,,0.02,WeatherDisplay:10.37,2013-10-19 15:14:00,
2013-10-19 11:19:00,60.5,60.5,29.87,NNW,331,0.0,0.0,100,0.01,RA,,0.02,WeatherDisplay:10.37,2013-10-19 15:19:00,
2013-10-19 11:24:00,60.7,60.7,29.87,NNW,331,0.0,0.0,100,0.01,OVC,,0.02,WeatherDisplay:10.37,2013-10-19 15:24:00,
2013-10-19 11:29:00,60.9,60.9,29.86,NNW,331,0.0,0.0,100,0.01,OVC,,0.02,WeatherDisplay:10.37,2013-10-19 15:29:00,
2013-10-19 11:34:00,60.9,60.9,29.85,NNW,331,0.0,0.0,100,0.01,OVC,,0.02,WeatherDisplay:10.37,2013-10-19 15:34:00,
2013-10-19 11:39:00,61.0,61.0,29.87,NNW,331,1.2,0.0,100,0.01,OVC,,0.02,WeatherDisplay:10.37,2013-10-19 15:39:00,
2013-10-19 11:44:00,61.2,61.2,29.86,NNW,331,0.0,0.0,100,0.01,OVC,,0.02,WeatherDisplay:10.37,2013-10-19 15:44:00,
2013-10-19 11:49:00,61.2,61.2,29.86,NNW,331,0.0,0.0,100,0.01,OVC,,0.02,WeatherDisplay:10.37,2013-10-19 15:49:00,
2013-10-19 11:54:00,61.3,61.3,29.86,NNW,331,0.0,0.0,100,0.01,OVC,,0.02,WeatherDisplay:10.37,2013-10-19 15:54:00,
2013-10-19 11:59:00,61.5,61.5,29.87,WNW,284,2.3,2.3,100,0.01,OVC,,0.02,WeatherDisplay:10.37,2013-10-19 15:59:00,
2013-10-19 12:04:00,61.5,61.5,29.87,NE,42,0.0,0.0,100,0.01,SCT,,0.02,WeatherDisplay:10.37,2013-10-19 16:04:00,
2013-10-19 12:09:00,61.6,61.6,29.87,WNW,288,3.5,3.5,100,0.01,SCT,,0.02,WeatherDisplay:10.37,2013-10-19 16:09:00,
2013-10-19 12:14:00,61.6,61.6,29.86,West,274,3.5,3.5,100,0.00,SCT,,0.02,WeatherDisplay:10.37,2013-10-19 16:14:00,
2013-10-19 12:19:00,61.5,61.2,29.87,WNW,283,3.5,3.5,99,0.00,SCT,,0.02,WeatherDisplay:10.37,2013-10-19 16:19:00,
2013-10-19 12:24:00,61.5,61.2,29.87,WNW,288,3.5,3.5,99,0.00,SCT,,0.02,WeatherDisplay:10.37,2013-10-19 16:24:00,
2013-10-19 12:29:00,61.5,61.2,29.86,West,273,0.0,0.0,99,0.00,SCT,,0.02,WeatherDisplay:10.37,2013-10-19 16:29:00,
2013-10-19 12:34:00,61.6,61.0,29.86,West,271,0.0,0.0,98,0.00,SCT,,0.02,WeatherDisplay:10.37,2013-10-19 16:34:00,
2013-10-19 12:39:00,61.8,61.2,29.86,West,271,0.0,0.0,98,0.00,SCT,,0.02,WeatherDisplay:10.37,2013-10-19 16:39:00,
2013-10-19 12:44:00,61.8,61.2,29.86,West,274,0.0,0.0,98,0.00,SCT,,0.02,WeatherDisplay:10.37,2013-10-19 16:44:00,
2013-10-19 12:49:00,62.0,61.4,29.86,West,274,0.0,0.0,98,0.00,SCT,,0.02,WeatherDisplay:10.37,2013-10-19 16:49:00,
2013-10-19 12:55:00,62.1,61.2,29.85,WSW,256,0.0,0.0,97,0.00,SCT,,0.02,WeatherDisplay:10.37,2013-10-19 16:55:00,
2013-10-19 13:00:00,62.1,61.2,29.85,WSW,256,0.0,0.0,97,0.00,SCT,,0.02,WeatherDisplay:10.37,2013-10-19 17:00:00,
2013-10-19 13:05:00,62.3,61.1,29.84,West,262,2.3,0.0,96,0.00,SCT,,0.02,WeatherDisplay:10.37,2013-10-19 17:05:00,
2013-10-19 13:10:00,62.3,61.1,29.84,West,262,0.0,0.0,96,0.00,SCT,,0.02,WeatherDisplay:10.37,2013-10-19 17:10:00,
2013-10-19 13:15:00,62.4,61.2,29.84,West,262,0.0,0.0,96,0.00,SCT,,0.02,WeatherDisplay:10.37,2013-10-19 17:15:00,
2013-10-19 13:20:00,62.4,61.2,29.84,West,262,0.0,0.0,96,0.00,CLR,,0.02,WeatherDisplay:10.37,2013-10-19 17:20:00,
2013-10-19 13:25:00,62.4,60.9,29.84,West,262,0.0,0.0,95,0.00,CLR,,0.02,WeatherDisplay:10.37,2013-10-19 17:25:00,
2013-10-19 13:30:00,62.4,60.9,29.83,SE,142,0.0,0.0,95,0.00,CLR,,0.02,WeatherDisplay:10.37,2013-10-19 17:30:00,
2013-10-19 13:35:00,62.4,60.9,29.83,SE,142,0.0,0.0,95,0.00,CLR,,0.02,WeatherDisplay:10.37,2013-10-19 17:35:00,
2013-10-19 13:40:00,62.4,60.7,29.83,SE,146,1.0,1.0,94,0.00,CLR,,0.02,WeatherDisplay:10.37,2013-10-19 17:40:00,
2013-10-19 13:45:00,62.4,60.7,29.82,WSW,258,0.0,0.0,94,0.00,CLR,,0.02,WeatherDisplay:10.37,2013-10-19 17:45:00,
2013-10-19 13:50:00,62.6,60.8,29.82,WSW,258,0.0,0.0,94,0.00,CLR,,0.02,WeatherDisplay:10.37,2013-10-19 17:50:00,
2013-10-19 13:55:00,62.6,60.8,29.81,WSW,258,0.0,0.0,94,0.00,CLR,,0.02,WeatherDisplay:10.37,2013-10-19 17:55:00,
2013-10-19 14:00:00,62.4,60.3,29.82,WSW,258,0.0,0.0,93,0.00,CLR,,0.02,WeatherDisplay:10.37,2013-10-19 18:00:00,
2013-10-19 14:05:00,62.3,60.2,29.81,WSW,258,0.0,0.0,93,0.00,OVC,,0.02,WeatherDisplay:10.37,2013-10-19 18:05:00,
2013-10-19 14:10:00,62.1,60.1,29.81,WSW,243,0.0,0.0,93,0.00,OVC,,0.02,WeatherDisplay:10.37,2013-10-19 18:10:00,
2013-10-19 14:15:00,62.1,60.1,29.81,SSE,167,1.2,1.2,93,0.00,OVC,,0.02,WeatherDisplay:10.37,2013-10-19 18:15:00,
2013-10-19 14:20:00,62.1,60.1,29.79,SSE,167,0.0,0.0,93,0.00,OVC,,0.02,WeatherDisplay:10.37,2013-10-19 18:20:00,
2013-10-19 14:25:00,62.1,60.1,29.81,SSE,167,0.0,0.0,93,0.00,OVC,,0.02,WeatherDisplay:10.37,2013-10-19 18:25:00,
2013-10-19 14:30:00,62.0,60.0,29.81,SSE,167,0.0,0.0,93,0.00,OVC,,0.02,WeatherDisplay:10.37,2013-10-19 18:30:00,
2013-10-19 14:35:00,62.0,59.6,29.81,SSE,165,0.0,1.0,92,0.00,OVC,,0.02,WeatherDisplay:10.37,2013-10-19 18:35:00,
2013-10-19 14:40:00,61.8,59.5,29.82,West,275,1.2,0.0,92,0.00,OVC,,0.02,WeatherDisplay:10.37,2013-10-19 18:40:00,
2013-10-19 14:45:00,61.8,59.8,29.82,West,277,0.0,1.0,93,0.00,OVC,,0.02,WeatherDisplay:10.37,2013-10-19 18:45:00,
2013-10-19 14:50:00,61.8,59.4,29.83,WNW,303,0.0,4.0,92,0.00,OVC,,0.02,WeatherDisplay:10.37,2013-10-19 18:50:00,
2013-10-19 14:55:00,61.6,58.9,29.82,NW,304,0.0,0.0,91,0.00,OVC,,0.02,WeatherDisplay:10.37,2013-10-19 18:55:00,
2013-10-19 15:00:00,61.6,59.3,29.81,NW,304,0.0,0.0,92,0.00,OVC,,0.02,WeatherDisplay:10.37,2013-10-19 19:00:00,
2013-10-19 15:05:00,61.8,59.5,29.81,NW,304,1.2,0.0,92,0.00,OVC,,0.02,WeatherDisplay:10.37,2013-10-19 19:05:00,
2013-10-19 15:10:00,61.8,59.1,29.81,NW,304,0.0,0.0,91,0.00,OVC,,0.02,WeatherDisplay:10.37,2013-10-19 19:10:00,
2013-10-19 15:15:00,61.8,58.8,29.81,NW,304,0.0,1.0,90,0.00,OVC,,0.02,WeatherDisplay:10.37,2013-10-19 19:15:00,
2013-10-19 15:20:00,61.8,58.2,29.82,North,350,3.5,3.5,88,0.00,OVC,,0.02,WeatherDisplay:10.37,2013-10-19 19:20:00,
2013-10-19 15:25:00,61.6,57.7,29.82,NW,320,0.0,5.0,87,0.00,OVC,,0.02,WeatherDisplay:10.37,2013-10-19 19:25:00,
2013-10-19 15:30:00,61.5,57.3,29.83,NW,315,0.0,2.0,86,0.00,OVC,,0.02,WeatherDisplay:10.37,2013-10-19 19:30:00,
2013-10-19 15:35:00,61.3,56.8,29.83,NW,310,1.0,10.0,85,0.01,RA,,0.03,WeatherDisplay:10.37,2013-10-19 19:35:00,
2013-10-19 15:40:00,61.2,56.3,29.83,West,279,1.2,0.0,84,0.01,RA,,0.03,WeatherDisplay:10.37,2013-10-19 19:40:00,
2013-10-19 15:45:00,61.2,56.3,29.83,WNW,295,1.0,5.0,84,0.00,OVC,,0.03,WeatherDisplay:10.37,2013-10-19 19:45:00,
2013-10-19 15:50:00,61.3,56.4,29.83,NNE,17,1.2,0.0,84,0.01,OVC,,0.03,WeatherDisplay:10.37,2013-10-19 19:50:00,
2013-10-19 15:55:00,61.3,56.8,29.83,NNW,334,0.0,4.0,85,0.00,OVC,,0.03,WeatherDisplay:10.37,2013-10-19 19:55:00,
2013-10-19 16:00:00,61.3,56.1,29.82,NW,304,0.0,5.0,83,0.00,OVC,,0.03,WeatherDisplay:10.37,2013-10-19 20:00:00,
2013-10-19 16:05:00,61.3,55.4,29.82,NNW,330,2.0,5.0,81,0.00,OVC,,0.03,WeatherDisplay:10.37,2013-10-19 20:05:00,
2013-10-19 16:10:00,61.5,56.0,29.83,NNW,346,3.5,0.0,82,0.01,OVC,,0.03,WeatherDisplay:10.37,2013-10-19 20:10:00,
2013-10-19 16:15:00,61.5,56.0,29.83,North,360,3.5,3.5,82,0.01,OVC,,0.03,WeatherDisplay:10.37,2013-10-19 20:15:00,
2013-10-19 16:20:00,61.5,56.3,29.83,North,350,1.2,1.2,83,0.01,OVC,,0.03,WeatherDisplay:10.37,2013-10-19 20:20:00,
2013-10-19 16:25:00,61.5,56.3,29.83,North,350,0.0,5.0,83,0.00,OVC,,0.03,WeatherDisplay:10.37,2013-10-19 20:25:00,
2013-10-19 16:30:00,61.3,55.8,29.82,NNW,329,2.3,0.0,82,0.01,OVC,,0.03,WeatherDisplay:10.37,2013-10-19 20:30:00,
2013-10-19 16:35:00,61.3,56.1,29.83,NNW,332,1.0,2.0,83,0.00,OVC,,0.03,WeatherDisplay:10.37,2013-10-19 20:35:00,
2013-10-19 16:40:00,61.3,56.8,29.83,NW,326,0.0,0.0,85,0.00,OVC,,0.03,WeatherDisplay:10.37,2013-10-19 20:40:00,
2013-10-19 16:45:00,61.3,56.4,29.82,NW,326,0.0,1.0,84,0.00,OVC,,0.03,WeatherDisplay:10.37,2013-10-19 20:45:00,
2013-10-19 16:50:00,61.3,56.1,29.83,NNW,328,0.0,0.0,83,0.00,OVC,,0.03,WeatherDisplay:10.37,2013-10-19 20:50:00,
2013-10-19 16:55:00,61.5,56.6,29.83,NNW,328,0.0,0.0,84,0.00,OVC,,0.03,WeatherDisplay:10.37,2013-10-19 20:55:00,
2013-10-19 17:00:00,61.5,56.3,29.83,NW,307,5.0,5.0,83,0.00,OVC,,0.03,WeatherDisplay:10.37,2013-10-19 21:00:00,
2013-10-19 17:05:00,61.6,56.0,29.83,NNW,332,0.0,0.0,82,0.00,CLR,,0.03,WeatherDisplay:10.37,2013-10-19 21:05:00,
2013-10-19 17:10:00,61.6,56.4,29.83,NNW,332,1.2,0.0,83,0.00,CLR,,0.03,WeatherDisplay:10.37,2013-10-19 21:10:00,
2013-10-19 17:15:00,61.6,56.4,29.83,NNW,330,0.0,2.0,83,0.00,CLR,,0.03,WeatherDisplay:10.37,2013-10-19 21:15:00,
2013-10-19 17:20:00,61.6,56.0,29.83,WNW,303,0.0,0.0,82,0.00,CLR,,0.03,WeatherDisplay:10.37,2013-10-19 21:20:00,
2013-10-19 17:25:00,61.6,56.4,29.83,WNW,303,0.0,1.0,83,0.00,CLR,,0.03,WeatherDisplay:10.37,2013-10-19 21:25:00,
2013-10-19 17:30:00,61.5,56.0,29.83,NW,304,0.0,0.0,82,0.00,CLR,,0.03,WeatherDisplay:10.37,2013-10-19 21:30:00,
2013-10-19 17:35:00,61.5,56.3,29.83,NW,304,0.0,0.0,83,0.00,CLR,,0.03,WeatherDisplay:10.37,2013-10-19 21:35:00,
2013-10-19 17:40:00,61.3,56.1,29.83,NW,304,0.0,0.0,83,0.00,CLR,,0.03,WeatherDisplay:10.37,2013-10-19 21:40:00,
2013-10-19 17:45:00,61.2,56.0,29.84,WNW,303,1.2,1.2,83,0.00,CLR,,0.03,WeatherDisplay:10.37,2013-10-19 21:45:00,
2013-10-19 17:50:00,61.0,56.1,29.83,WNW,303,0.0,1.0,84,0.00,CLR,,0.03,WeatherDisplay:10.37,2013-10-19 21:50:00,
2013-10-19 17:55:00,60.9,56.0,29.83,WNW,303,0.0,0.0,84,0.00,CLR,,0.03,WeatherDisplay:10.37,2013-10-19 21:55:00,
2013-10-19 18:00:00,60.7,56.2,29.83,WNW,303,0.0,0.0,85,0.00,CLR,,0.03,WeatherDisplay:10.37,2013-10-19 22:00:00,
2013-10-19 18:05:00,60.5,56.3,29.83,WNW,303,0.0,0.0,86,0.00,CLR,,0.03,WeatherDisplay:10.37,2013-10-19 22:05:00,
2013-10-19 18:10:00,60.5,56.3,29.83,WNW,303,1.2,0.0,86,0.00,CLR,,0.03,WeatherDisplay:10.37,2013-10-19 22:10:00,
2013-10-19 18:15:00,60.4,56.2,29.84,WNW,303,0.0,0.0,86,0.00,CLR,,0.03,WeatherDisplay:10.37,2013-10-19 22:15:00,
2013-10-19 18:20:00,60.2,56.3,29.83,NW,304,0.0,0.0,87,0.00,CLR,,0.03,WeatherDisplay:10.37,2013-10-19 22:20:00,
2013-10-19 18:25:00,60.1,56.5,29.83,NW,304,0.0,0.0,88,0.00,CLR,,0.03,WeatherDisplay:10.37,2013-10-19 22:25:00,
2013-10-19 18:30:00,59.9,56.3,29.83,NW,304,0.0,0.0,88,0.00,CLR,,0.03,WeatherDisplay:10.37,2013-10-19 22:30:00,
2013-10-19 18:35:00,59.6,56.1,29.83,NW,304,0.0,0.0,88,0.00,CLR,,0.03,WeatherDisplay:10.37,2013-10-19 22:35:00,
2013-10-19 18:40:00,59.5,56.3,29.83,NW,304,0.0,0.0,89,0.00,CLR,,0.03,WeatherDisplay:10.37,2013-10-19 22:40:00,
2013-10-19 18:45:00,59.3,56.4,29.84,NW,304,0.0,0.0,90,0.00,CLR,,0.03,WeatherDisplay:10.37,2013-10-19 22:45:00,
2013-10-19 18:50:00,59.2,56.3,29.84,NW,304,0.0,0.0,90,0.00,CLR,,0.03,WeatherDisplay:10.37,2013-10-19 22:50:00,
2013-10-19 18:55:00,59.0,56.1,29.84,NW,304,0.0,0.0,90,0.00,CLR,,0.03,WeatherDisplay:10.37,2013-10-19 22:55:00,
2013-10-19 19:00:00,58.7,56.1,29.84,NW,304,0.0,0.0,91,0.00,CLR,,0.03,WeatherDisplay:10.37,2013-10-19 23:00:00,
2013-10-19 19:05:00,58.6,56.0,29.84,NW,304,0.0,0.0,91,0.00,CLR,,0.03,WeatherDisplay:10.37,2013-10-19 23:05:00,
2013-10-19 19:10:00,58.4,56.1,29.84,NW,304,0.0,0.0,92,0.00,CLR,,0.03,WeatherDisplay:10.37,2013-10-19 23:10:00,
2013-10-19 19:15:00,58.3,56.3,29.85,NW,304,0.0,0.0,93,0.00,CLR,,0.03,WeatherDisplay:10.37,2013-10-19 23:15:00,
2013-10-19 19:20:00,58.0,56.3,29.85,NW,304,0.0,0.0,94,0.00,CLR,,0.03,WeatherDisplay:10.37,2013-10-19 23:20:00,
2013-10-19 19:25:00,57.8,56.1,29.85,NW,304,0.0,0.0,94,0.00,CLR,,0.03,WeatherDisplay:10.37,2013-10-19 23:25:00,
2013-10-19 19:30:00,57.5,55.8,29.85,NW,304,0.0,2.0,94,0.00,CLR,,0.03,WeatherDisplay:10.37,2013-10-19 23:30:00,
2013-10-19 19:35:00,57.3,55.9,29.85,NW,304,0.0,0.0,95,0.00,CLR,,0.03,WeatherDisplay:10.37,2013-10-19 23:35:00,
2013-10-19 19:40:00,57.2,55.8,29.85,NW,304,0.0,0.0,95,0.00,CLR,,0.03,WeatherDisplay:10.37,2013-10-19 23:40:00,
2013-10-19 19:45:00,57.0,55.5,29.85,NW,304,0.0,0.0,95,0.00,CLR,,0.03,WeatherDisplay:10.37,2013-10-19 23:45:00,
2013-10-19 19:50:00,56.7,55.6,29.85,NW,304,0.0,0.0,96,0.00,CLR,,0.03,WeatherDisplay:10.37,2013-10-19 23:50:00,
2013-10-19 19:55:00,56.6,55.5,29.85,NW,304,0.0,2.0,96,0.00,CLR,,0.03,WeatherDisplay:10.37,2013-10-19 23:55:00,
2013-10-19 20:00:00,56.5,55.4,29.86,NW,304,0.0,0.0,96,0.00,CLR,,0.03,WeatherDisplay:10.37,2013-10-20 00:00:00,
2013-10-19 20:05:00,56.5,55.6,29.86,NW,304,0.0,0.0,97,0.00,CLR,,0.03,WeatherDisplay:10.37,2013-10-20 00:05:00,
2013-10-19 20:10:00,56.2,55.4,29.86,NW,304,0.0,0.0,97,0.00,CLR,,0.03,WeatherDisplay:10.37,2013-10-20 00:10:00,
2013-10-19 20:15:00,56.0,55.2,29.86,NW,304,0.0,0.0,97,0.00,CLR,,0.03,WeatherDisplay:10.37,2013-10-20 00:15:00,
2013-10-19 20:20:00,56.0,55.2,29.85,NW,304,0.0,0.0,97,0.00,CLR,,0.03,WeatherDisplay:10.37,2013-10-20 00:20:00,
2013-10-19 20:25:00,55.9,55.1,29.85,NW,304,0.0,0.0,97,0.00,CLR,,0.03,WeatherDisplay:10.37,2013-10-20 00:25:00,
2013-10-19 20:30:00,55.7,54.9,29.86,NW,304,0.0,0.0,97,0.00,CLR,,0.03,WeatherDisplay:10.37,2013-10-20 00:30:00,
2013-10-19 20:35:00,55.6,54.8,29.86,NW,304,0.0,0.0,97,0.00,CLR,,0.03,WeatherDisplay:10.37,2013-10-20 00:35:00,
2013-10-19 20:40:00,55.4,54.6,29.86,NW,304,0.0,0.0,97,0.00,CLR,,0.03,WeatherDisplay:10.37,2013-10-20 00:40:00,
2013-10-19 20:45:00,55.3,54.5,29.86,NW,304,0.0,0.0,97,0.00,CLR,,0.03,WeatherDisplay:10.37,2013-10-20 00:45:00,
2013-10-19 20:50:00,55.1,54.5,29.86,NW,304,0.0,0.0,98,0.00,CLR,,0.03,WeatherDisplay:10.37,2013-10-20 00:50:00,
2013-10-19 20:55:00,55.0,54.4,29.86,NW,304,0.0,2.0,98,0.00,CLR,,0.03,WeatherDisplay:10.37,2013-10-20 00:55:00,
2013-10-19 21:00:00,54.8,54.2,29.86,NW,304,0.0,0.0,98,0.00,CLR,,0.03,WeatherDisplay:10.37,2013-10-20 01:00:00,
2013-10-19 21:05:00,54.8,54.2,29.86,NW,304,0.0,0.0,98,0.00,CLR,,0.03,WeatherDisplay:10.37,2013-10-20 01:05:00,
2013-10-19 21:10:00,54.7,54.1,29.86,NW,304,0.0,0.0,98,0.00,CLR,,0.03,WeatherDisplay:10.37,2013-10-20 01:10:00,
2013-10-19 21:15:00,54.5,53.9,29.86,NW,304,0.0,0.0,98,0.00,CLR,,0.03,WeatherDisplay:10.37,2013-10-20 01:15:00,
2013-10-19 21:20:00,54.4,53.8,29.86,NW,304,0.0,0.0,98,0.00,CLR,,0.03,WeatherDisplay:10.37,2013-10-20 01:20:00,
2013-10-19 21:25:00,54.2,53.6,29.86,NW,304,0.0,0.0,98,0.00,CLR,,0.03,WeatherDisplay:10.37,2013-10-20 01:25:00,
2013-10-19 21:30:00,54.1,53.5,29.86,NW,304,0.0,0.0,98,0.00,CLR,,0.03,WeatherDisplay:10.37,2013-10-20 01:30:00,
2013-10-19 21:35:00,53.9,53.3,29.86,NW,304,0.0,0.0,98,0.00,CLR,,0.03,WeatherDisplay:10.37,2013-10-20 01:35:00,
2013-10-19 21:40:00,53.8,53.2,29.87,NW,304,0.0,0.0,98,0.00,CLR,,0.03,WeatherDisplay:10.37,2013-10-20 01:40:00,
2013-10-19 21:45:00,53.5,53.0,29.87,NW,304,0.0,0.0,98,0.00,CLR,,0.03,WeatherDisplay:10.37,2013-10-20 01:45:00,
2013-10-19 21:50:00,53.5,52.9,29.87,NW,304,0.0,0.0,98,0.00,CLR,,0.03,WeatherDisplay:10.37,2013-10-20 01:50:00,
2013-10-19 21:55:00,53.3,52.8,29.87,NW,304,0.0,0.0,98,0.00,CLR,,0.03,WeatherDisplay:10.37,2013-10-20 01:55:00,
2013-10-19 22:00:00,53.2,52.7,29.88,NW,304,0.0,0.0,98,0.00,CLR,,0.03,WeatherDisplay:10.37,2013-10-20 02:00:00,
2013-10-19 22:05:00,52.9,52.4,29.88,NW,304,0.0,0.0,98,0.00,CLR,,0.03,WeatherDisplay:10.37,2013-10-20 02:05:00,
2013-10-19 22:10:00,52.6,52.1,29.88,NW,304,0.0,0.0,98,0.00,CLR,,0.03,WeatherDisplay:10.37,2013-10-20 02:10:00,
2013-10-19 22:15:00,52.3,51.8,29.88,NW,304,0.0,0.0,98,0.00,CLR,,0.03,WeatherDisplay:10.37,2013-10-20 02:15:00,
2013-10-19 22:20:00,52.2,51.7,29.88,NW,304,0.0,0.0,98,0.00,CLR,,0.03,WeatherDisplay:10.37,2013-10-20 02:20:00,
2013-10-19 22:25:00,51.9,51.4,29.88,NW,304,0.0,0.0,98,0.00,CLR,,0.03,WeatherDisplay:10.37,2013-10-20 02:25:00,
2013-10-19 22:30:00,51.7,51.2,29.88,NW,304,0.0,0.0,98,0.00,CLR,,0.03,WeatherDisplay:10.37,2013-10-20 02:30:00,
2013-10-19 22:35:00,51.6,51.1,29.88,NW,304,0.0,0.0,98,0.00,CLR,,0.03,WeatherDisplay:10.37,2013-10-20 02:35:00,
2013-10-19 22:40:00,51.4,50.9,29.88,NW,304,0.0,0.0,98,0.00,CLR,,0.03,WeatherDisplay:10.37,2013-10-20 02:40:00,
2013-10-19 22:45:00,51.4,50.9,29.88,NW,304,0.0,0.0,98,0.00,CLR,,0.03,WeatherDisplay:10.37,2013-10-20 02:45:00,
2013-10-19 22:50:00,51.3,50.8,29.88,NW,304,0.0,0.0,98,0.00,CLR,,0.03,WeatherDisplay:10.37,2013-10-20 02:50:00,
2013-10-19 22:55:00,51.1,50.6,29.88,NW,304,0.0,0.0,98,0.00,CLR,,0.03,WeatherDisplay:10.37,2013-10-20 02:55:00,
2013-10-19 23:00:00,51.0,50.5,29.88,NW,304,0.0,0.0,98,0.00,CLR,,0.03,WeatherDisplay:10.37,2013-10-20 03:00:00,
2013-10-19 23:05:00,50.8,50.5,29.88,NW,304,0.0,0.0,99,0.00,CLR,,0.03,WeatherDisplay:10.37,2013-10-20 03:05:00,
2013-10-19 23:10:00,50.7,50.4,29.88,NW,304,0.0,0.0,99,0.00,CLR,,0.03,WeatherDisplay:10.37,2013-10-20 03:10:00,
2013-10-19 23:15:00,50.7,50.4,29.88,NW,304,0.0,0.0,99,0.00,CLR,,0.03,WeatherDisplay:10.37,2013-10-20 03:15:00,
2013-10-19 23:20:00,50.7,50.4,29.88,NW,304,0.0,0.0,99,0.00,CLR,,0.03,WeatherDisplay:10.37,2013-10-20 03:20:00,
2013-10-19 23:25:00,50.7,50.4,29.88,NW,304,0.0,0.0,99,0.00,CLR,,0.03,WeatherDisplay:10.37,2013-10-20 03:25:00,
2013-10-19 23:30:00,50.8,50.5,29.88,NW,304,0.0,0.0,99,0.00,CLR,,0.03,WeatherDisplay:10.37,2013-10-20 03:30:00,
2013-10-19 23:35:00,50.7,50.4,29.88,NW,304,0.0,0.0,99,0.00,CLR,,0.03,WeatherDisplay:10.37,2013-10-20 03:35:00,
2013-10-19 23:40:00,50.7,50.4,29.88,NW,304,0.0,0.0,99,0.00,CLR,,0.03,WeatherDisplay:10.37,2013-10-20 03:40:00,
2013-10-19 23:45:00,50.8,50.5,29.88,NW,304,0.0,0.0,99,0.00,CLR,,0.03,WeatherDisplay:10.37,2013-10-20 03:45:00,
2013-10-19 23:50:00,51.0,50.7,29.88,NW,304,0.0,0.0,99,0.00,CLR,,0.03,WeatherDisplay:10.37,2013-10-20 03:50:00,
2013-10-19 23:55:00,50.8,50.5,29.88,NW,304,0.0,0.0,99,0.00,CLR,,0.03,WeatherDisplay:10.37,2013-10-20 03:55:00,